DW9396 Weather Reports


Display with metric or nautical units.
time (UTC)temp
F
wind
direction
speed
MPH
gust
MPH
rain 1hr
in
rain 24hr
in
rain mn
in
humidity
%
barometer
mb
20260904104555 57 353 0.0 0.0 0.00 0.00 0.00 88 1009.1
20260904103054 57 352 0.0 0.0 0.00 0.00 0.00 88 1009.1
20260904101553 57 353 0.0 0.0 0.00 0.00 0.00 88 1009.1
20260904100152 58 353 0.0 0.0 0.00 0.00 0.00 88 1009.2
20260904094551 58 353 0.0 0.0 0.00 0.00 0.00 88 1009.2
20260904093049 58 353 0.0 0.0 0.00 0.00 0.00 88 1009.2
20260904091552 58 353 0.0 0.0 0.00 0.00 0.00 88 1009.2
20260904090147 58 353 0.0 0.0 0.00 0.00 0.00 88 1009.4
20260904084545 58 353 0.0 0.0 0.00 0.00 0.00 88 1009.6
20260904083044 58 353 0.0 0.0 0.00 0.00 0.00 88 1009.6
20260904081552 58 353 0.0 0.0 0.00 0.00 0.00 88 1009.6
20260904080142 57 353 0.0 0.0 0.00 0.00 0.00 88 1009.6
20260904074540 57 353 0.0 0.0 0.00 0.00 0.00 88 1009.7
20260904073039 57 353 0.0 0.0 0.00 0.00 0.00 87 1009.6
20260904071539 57 353 0.0 1.0 0.00 0.00 0.00 88 1009.6
20260904070140 57 353 0.0 0.0 0.00 0.00 0.00 87 1009.6
20260904064535 57 353 0.0 0.0 0.00 0.00 0.00 86 1009.4
20260904063039 58 353 0.0 0.0 0.00 0.00 0.00 85 1009.3
20260904061542 58 353 0.0 0.0 0.00 0.00 0.00 85 1009.3
20260904060135 58 353 0.0 0.0 0.00 0.00 0.00 85 1009.5
20260904054538 59 352 0.0 0.0 0.00 0.00 0.00 85 1009.6
20260904053036 59 353 0.0 0.0 0.00 0.00 0.00 84 1009.8
20260904051535 59 353 0.0 0.0 0.00 0.00 0.00 84 1010.0
20260904050136 59 12 0.0 0.0 0.00 0.00 0.00 83 1010.1
20260904044548 60 1 0.0 1.0 0.00 0.00 0.00 83 1010.1
20260904043054 60 330 0.0 1.0 0.00 0.00 0.00 82 1010.1
20260904041533 60 330 0.0 1.0 0.00 0.00 0.00 81 1010.1
20260904034534 61 26 0.0 1.0 0.00 0.00 0.00 77 1009.8
20260904033034 62 36 0.0 0.0 0.00 0.00 0.00 76 1009.6
20260904031534 62 36 0.0 0.0 0.00 0.00 0.00 75 1009.5
20260904030136 62 36 0.0 0.0 0.00 0.00 0.00 74 1009.4
20260904024531 63 36 0.0 1.0 0.00 0.00 0.00 73 1009.5
20260904023030 63 315 0.0 0.0 0.00 0.00 0.00 71 1009.7
20260904021529 64 315 0.0 0.0 0.00 0.00 0.00 69 1009.5
20260904020129 65 309 0.0 1.0 0.00 0.00 0.00 67 1009.6
20260904014529 66 295 0.0 2.0 0.00 0.00 0.00 65 1009.6
20260904013028 67 352 0.0 2.0 0.00 0.00 0.00 61 1009.5
20260904011528 68 304 0.0 2.0 0.00 0.00 0.00 56 1009.6
20260904004526 71 11 0.0 2.0 0.00 0.00 0.00 43 1009.6
20260904003026 72 356 0.0 2.0 0.00 0.00 0.00 43 1009.6
20260904001525 71 280 1.0 3.0 0.00 0.00 0.00 43 1009.6
20260904000126 71 359 1.0 3.0 0.00 0.00 0.00 41 1009.6
20260903234528 72 17 0.0 3.0 0.00 0.00 0.00 44 1009.8
20260903233022 72 18 0.0 2.0 0.00 0.00 0.00 44 1009.9
20260903231521 71 290 0.0 5.0 0.00 0.00 0.00 46 1010.3
20260903230120 72 11 1.0 3.0 0.00 0.00 0.00 45 1010.5
20260903224525 72 347 0.0 2.0 0.00 0.00 0.00 47 1010.7
20260903223019 72 346 0.0 2.0 0.00 0.00 0.00 49 1010.9
20260903221516 72 13 1.0 4.0 0.00 0.00 0.00 49 1011.0
20260903220125 73 286 0.0 2.0 0.00 0.00 0.00 49 1011.0
20260903214528 74 3 0.0 3.0 0.00 0.00 0.00 48 1011.0
20260903213018 74 149 1.0 6.0 0.00 0.00 0.00 47 1010.8
20260903211519 75 30 0.0 3.0 0.00 0.00 0.00 47 1010.9
20260903210120 74 295 2.0 4.0 0.00 0.00 0.00 47 1011.0
20260903204512 75 19 2.0 5.0 0.00 0.00 0.00 45 1011.0
20260903203022 75 297 2.0 4.0 0.00 0.00 0.00 47 1011.0
20260903201511 76 38 1.0 5.0 0.00 0.00 0.00 44 1011.1
20260903200112 76 345 1.0 5.0 0.00 0.00 0.00 46 1011.1
20260903194518 76 352 0.0 4.0 0.00 0.00 0.00 44 1011.3
20260903193006 75 13 1.0 4.0 0.00 0.00 0.00 45 1011.4
20260903191508 75 295 1.0 3.0 0.00 0.00 0.00 46 1011.6
20260903184602 73 285 1.0 3.0 0.00 0.00 0.00 45 1012.0
20260903183101 73 309 1.0 4.0 0.00 0.00 0.00 45 1012.1
20260903181558 73 195 0.0 2.0 0.00 0.00 0.00 48 1012.2
20260903180057 73 295 0.0 2.0 0.00 0.00 0.00 47 1012.3
20260903174556 73 90 0.0 0.0 0.00 0.00 0.00 48 1012.3
20260903173053 72 174 0.0 0.0 0.00 0.00 0.00 50 1012.3
20260903171550 71 101 0.0 0.0 0.00 0.00 0.00 50 1012.6
20260903170049 70 101 0.0 0.0 0.00 0.00 0.00 53 1012.7
20260903164544 67 95 0.0 0.0 0.00 0.00 0.00 56 1012.8
20260903163044 65 174 0.0 0.0 0.00 0.00 0.00 58 1013.0
20260903161550 65 172 0.0 0.0 0.00 0.00 0.00 59 1013.1
20260903160043 67 132 0.0 0.0 0.00 0.00 0.00 55 1013.3
20260903154538 65 132 0.0 0.0 0.00 0.00 0.00 61 1013.5
20260903153035 59 133 0.0 0.0 0.00 0.00 0.00 71 1013.7
20260903151530 54 133 0.0 0.0 0.00 0.00 0.00 76 1013.7
20260903150033 50 133 0.0 0.0 0.00 0.00 0.00 81 1013.6
20260903144529 49 132 0.0 0.0 0.00 0.00 0.00 82 1013.6
20260903143047 48 133 0.0 2.0 0.00 0.00 0.00 83 1013.6
20260903141528 48 132 0.0 1.0 0.00 0.00 0.00 83 1013.3
20260903140030 47 142 1.0 3.0 0.00 0.00 0.00 84 1013.2
20260903134529 47 147 0.0 2.0 0.00 0.00 0.00 85 1013.2
20260903133025 47 138 1.0 3.0 0.00 0.00 0.00 85 1013.2
20260903131524 47 141 0.0 2.0 0.00 0.00 0.00 85 1013.1
20260903130024 47 136 0.0 2.0 0.00 0.00 0.00 85 1013.1
20260903124523 47 135 0.0 3.0 0.00 0.00 0.00 85 1013.1
20260903123021 48 145 0.0 2.0 0.00 0.00 0.00 85 1013.2
20260903121526 47 143 1.0 3.0 0.00 0.00 0.00 86 1013.4
20260903120016 47 139 1.0 2.0 0.00 0.00 0.00 86 1013.5
20260903114514 48 139 0.0 2.0 0.00 0.00 0.00 86 1013.7
20260903113024 48 137 1.0 2.0 0.00 0.00 0.00 87 1013.7
20260903111541 48 146 0.0 3.0 0.00 0.00 0.00 87 1013.8